Weather History for Pierre, SD

Change the Weather History Date:

Friday, October 11, 2013

  Actual Average Record
Temperature  
Mean Temperature 58 °F 51 °F  
Max Temperature 66 °F 64 °F 88 °F (1943)
Min Temperature 49 °F 38 °F 16 °F (2009)
Degree Days  
Heating Degree Days 7 14  
Month to date heating degree days 124 134  
Since 1 July heating degree days 189 305  
Cooling Degree Days 0 0  
Month to date cooling degree days 0 2  
Year to date cooling degree days 853 865  
Growing Degree Days 7 (Base 50)    
Moisture  
Dew Point 47 °F    
Average Humidity 71    
Maximum Humidity 86    
Minimum Humidity 56    
Precipitation  
Precipitation 0.11 in 0.06 in 1.73 in (1973)
Month to date precipitation 2.54 0.70  
Year to date precipitation 20.62 17.75  
Snow  
Snow 0.00 in 0.10 in 0.50 in (2009)
Month to date snowfall T 0.2  
Since 1 July snowfall T 0.2  
Snow Depth 0.00 in    
Sea Level Pressure  
Sea Level Pressure 29.43 in    
Wind  
Wind Speed 24 mph (SW)    
Max Wind Speed 41 mph    
Max Gust Speed 52 mph    
Visibility 9 miles    
Events Rain    
T = Trace of Precipitation, MM = Missing Value Source: NWS Daily Summary

Daily Weather History Graph

Daily Weather History Graph

Search for Another Location

Airport:

Trip Planner

Search our weather history database for the weather conditions in past years. The results will help you decide how hot, cold, wet, or windy it might be!

Date:

Astronomy

Oct. 11, 2013 Rise Set
Actual Time 7:51 AM CDT 7:03 PM CDT
Civil Twilight 7:22 AM CDT 7:32 PM CDT
Nautical Twilight 6:48 AM CDT 8:05 PM CDT
Astronomical Twilight 6:14 AM CDT 8:39 PM CDT
Moon 2:42 PM CDT (10/11) No Moon Set
Length of Visible Light 12h 10m
Length of Day
11h 11m
Waxing Crescent, 47% of the Moon is Illuminated
Oct 11
Waxing Crescent
Oct 11
First Quarter
Oct 18
Full
Oct 26
Last Quarter
Nov 3
New

Hourly Weather History & Observations

Time (CDT) Temp. Dew Point Humidity Pressure Visibility Wind Dir Wind Speed Gust Speed Precip Events Conditions
12:53 AM 64.0 °F 55.9 °F 75% 29.48 in 10.0 mi SE 10.4 mph - N/A   Partly Cloudy
1:53 AM 66.0 °F 55.9 °F 70% 29.49 in 10.0 mi SSW 16.1 mph 21.9 mph N/A   Scattered Clouds
2:53 AM 60.1 °F 55.0 °F 83% 29.44 in 10.0 mi ESE 6.9 mph - N/A   Clear
3:53 AM 64.0 °F 52.0 °F 65% 29.35 in 10.0 mi ESE 18.4 mph - N/A   Partly Cloudy
4:53 AM 64.0 °F 51.1 °F 63% 29.37 in 10.0 mi SE 19.6 mph 26.5 mph N/A   Clear
5:53 AM 62.1 °F 51.1 °F 67% 29.37 in 10.0 mi SE 12.7 mph - N/A   Clear
6:53 AM 60.1 °F 50.0 °F 69% 29.35 in 10.0 mi SE 17.3 mph - N/A   Clear
7:53 AM 60.1 °F 50.0 °F 69% 29.33 in 10.0 mi SE 13.8 mph - N/A   Mostly Cloudy
8:53 AM 60.1 °F 48.9 °F 67% 29.29 in 10.0 mi ESE 20.7 mph 29.9 mph N/A   Mostly Cloudy
9:53 AM 55.9 °F 52.0 °F 87% 29.24 in 2.5 mi ESE 20.7 mph 26.5 mph 0.07 in Rain Rain
10:07 AM 53.6 °F 50.0 °F 88% 29.26 in 5.0 mi SE 33.4 mph 42.6 mph 0.02 in Rain Light Rain
10:14 AM 53.6 °F 50.0 °F 88% 29.25 in 4.0 mi SE 29.9 mph 42.6 mph 0.03 in Rain Light Rain
10:53 AM 54.0 °F 50.0 °F 86% 29.20 in 10.0 mi ESE 23.0 mph 31.1 mph 0.03 in   Overcast
11:42 AM 53.6 °F 51.8 °F 94% 29.17 in 7.0 mi SSE 10.4 mph 19.6 mph N/A   Overcast
11:53 AM 55.0 °F 52.0 °F 89% 29.16 in 10.0 mi SSW 11.5 mph - N/A   Overcast
12:19 PM 55.4 °F 50.0 °F 82% 29.20 in 10.0 mi SW 17.3 mph 25.3 mph N/A   Mostly Cloudy
12:53 PM 55.9 °F 51.1 °F 84% 29.24 in 8.0 mi WSW 24.2 mph 29.9 mph 0.00 in Rain Light Rain
1:53 PM 57.0 °F 48.9 °F 74% 29.29 in 10.0 mi West 28.8 mph 36.8 mph 0.01 in   Overcast
2:29 PM 55.4 °F 48.2 °F 77% 29.35 in 10.0 mi WNW 32.2 mph 42.6 mph 0.00 in   Overcast
2:45 PM 53.6 °F 46.4 °F 77% 29.38 in 10.0 mi WNW 35.7 mph 48.3 mph 0.00 in   Overcast
2:53 PM 53.1 °F 46.0 °F 77% 29.38 in 10.0 mi WNW 33.4 mph 47.2 mph 0.00 in   Overcast
3:13 PM 51.8 °F 44.6 °F 76% 29.41 in 10.0 mi WNW 32.2 mph 42.6 mph N/A   Overcast
3:53 PM 51.1 °F 42.1 °F 71% 29.45 in 10.0 mi WNW 41.4 mph 51.8 mph N/A   Overcast
4:53 PM 48.9 °F 39.9 °F 71% 29.57 in 10.0 mi WNW 31.1 mph 43.7 mph N/A   Overcast
5:34 PM 50.0 °F 39.2 °F 66% 29.62 in 10.0 mi WNW 26.5 mph 39.1 mph N/A   Overcast
5:53 PM 50.0 °F 39.9 °F 68% 29.63 in 10.0 mi WNW 31.1 mph 42.6 mph N/A   Overcast
6:53 PM 51.1 °F 39.0 °F 63% 29.65 in 10.0 mi West 29.9 mph 40.3 mph N/A   Overcast
7:53 PM 51.1 °F 39.0 °F 63% 29.69 in 10.0 mi West 31.1 mph 41.4 mph N/A   Mostly Cloudy
8:53 PM 50.0 °F 39.0 °F 66% 29.71 in 10.0 mi WNW 25.3 mph 38.0 mph N/A   Clear
9:53 PM 50.0 °F 39.0 °F 66% 29.73 in 10.0 mi WNW 26.5 mph 33.4 mph N/A   Mostly Cloudy
10:53 PM 48.9 °F 36.0 °F 61% 29.78 in 10.0 mi WNW 31.1 mph 40.3 mph N/A   Mostly Cloudy
11:53 PM 50.0 °F 35.1 °F 57% 29.80 in 10.0 mi WNW 26.5 mph 34.5 mph N/A   Overcast